This is the latest recevied weather packets stored in our database for station/object ZL1KPB-13. If no packets are shown the sender has not sent any weather packets the latest 10 day(s).
| Time | Temp. | Humidity | Pressure | Rain* | Wind** | Luminosity | Snow |
|---|---|---|---|---|---|---|---|
| 1777765858 | 17.78° C | 58% | 1038 hPa | 0 mm | - | - | - |
| 1777761656 | 17.78° C | 62% | 1038 hPa | 0 mm | - | - | - |
| 1777757493 | 16.67° C | 66% | 1037.9 hPa | 0 mm | - | - | - |
| 1777752040 | 9.44° C | 99% | 1037.2 hPa | 0 mm | - | - | - |
| 1777749023 | 7.78° C | 99% | 1036.5 hPa | 0 mm | - | - | - |
| 1777742423 | 8.33° C | 96% | 1036.3 hPa | 0 mm | - | - | - |
| 1777741876 | 8.33° C | 96% | 1036.4 hPa | 0 mm | - | - | - |
| 1777740661 | 8.33° C | 96% | 1036.2 hPa | 0 mm | - | - | - |
| 1777738258 | 8.89° C | 97% | 1036.5 hPa | 0 mm | - | - | - |
| 1777732236 | 8.33° C | 94% | 1036.9 hPa | 0 mm | - | - | - |
| 1777729268 | 8.33° C | 91% | 1036.9 hPa | 0 mm | - | - | - |
| 1777725626 | 8.89° C | 88% | 1036.7 hPa | 0 mm | - | - | - |
| 1777721447 | 10.56° C | 82% | 1036.5 hPa | 0 mm | - | - | - |
| 1777720253 | 10.56° C | 82% | 1036.6 hPa | 0 mm | - | - | - |
| 1777719022 | 10.56° C | 80% | 1036.7 hPa | 0 mm | - | - | - |
| 1777717869 | 10.56° C | 78% | 1036.6 hPa | 0 mm | - | - | - |
| 1777716657 | 11.67° C | 79% | 1036.5 hPa | 0 mm | - | - | - |
| 1777711861 | 11.11° C | 80% | 1036 hPa | 0 mm | - | - | - |
| 1777709436 | 11.11° C | 82% | 1036 hPa | 0 mm | - | - | - |
| 1777699248 | 12.22° C | 71% | 1035.5 hPa | 0 mm | - | - | - |
| 1777695672 | 16.67° C | 58% | 1035.6 hPa | 0 mm | - | - | - |
| 1777690274 | 20.56° C | 46% | 1036.1 hPa | 0 mm | - | - | - |
| 1777689671 | 20.56° C | 47% | 1036.1 hPa | 0 mm | - | - | - |
| 1777683669 | 20° C | 49% | 1036.9 hPa | 0 mm | - | - | - |
| 1777681847 | 19.44° C | 51% | 1037.3 hPa | 0 mm | - | - | - |
* Rain latest hour (hover to see other rain measurements)
** Current wind speed in m/s (hover to see current wind gust speed)